FW4708 Hollywood FL US current weather conditions

sailwx.info

Wind from 215 at 3 knots gusting 8

Air temperature 31.7° C
Dewpoint 22.6° C

Last reported at 2019-Sep-15 17:03 UTC.
Time now 2019-Sep-15 18:10 UTC

Location: N 26°01' W 080°13'.
View on Google Maps.

See reports from other nearby stations

  
Tides and Currents Weather Stations Pressure Air Temp Water Temp Dewpoint Dewpoint Depression Visibility Wind Speed Wind Dir Waves Ship Positions
date/time (UTC)wind fromknots sea level pressurealtimeterstation pressurevisibilityair tempwater tempwave heightnotes
2019-Sep-15 17:03 215 3 gusting 8 31.7
2019-Sep-15 16:53 245 1 gusting 6 32.2
2019-Sep-15 16:43 244 0 gusting 6 31.7
2019-Sep-15 16:33 286 1 gusting 5 31.7
2019-Sep-15 16:23 257 2 gusting 6 31.7
2019-Sep-15 16:13 219 2 gusting 9 31.7
2019-Sep-15 16:03 251 1 gusting 5 32.2
2019-Sep-15 15:53 263 1 gusting 5 32.2
2019-Sep-15 15:43 270 1 gusting 7 32.2
2019-Sep-15 15:33 281 0 gusting 5 32.2
2019-Sep-15 15:23 275 0 gusting 4 31.7
2019-Sep-15 15:13 290 0 gusting 4 31.7
2019-Sep-15 15:03 273 1 gusting 6 31.1
2019-Sep-15 14:53 221 0 gusting 6 31.1
2019-Sep-15 14:43 238 0 gusting 3 30.6
2019-Sep-15 14:33 274 0 gusting 2 30.6
2019-Sep-15 14:23 273 30.6
2019-Sep-15 14:13 349 0 gusting 3 30.0
2019-Sep-15 14:03 272 1 gusting 5 29.4
2019-Sep-15 13:53 283 2 gusting 6 29.4
2019-Sep-15 13:43 351 2 gusting 5 28.9
2019-Sep-15 13:33 276 0 gusting 3 28.9
2019-Sep-15 13:23 283 0 gusting 2 28.9
2019-Sep-15 13:13 352 0 gusting 4 28.3
2019-Sep-15 13:03 307 0 gusting 3 27.8
2019-Sep-15 12:53 300 27.2
2019-Sep-15 12:43 352 1 gusting 3 27.2
2019-Sep-15 12:33 276 27.2
2019-Sep-15 12:23 266 1 gusting 2 26.7
2019-Sep-15 12:13 282 26.7
2019-Sep-15 12:03 274 0 gusting 2 26.1
2019-Sep-15 11:53 299 0 gusting 1 26.1
2019-Sep-15 11:44 263 26.1
2019-Sep-15 11:33 269 0 gusting 0 25.6
2019-Sep-15 11:23 274 25.6
2019-Sep-15 11:13 323 25.6
2019-Sep-15 11:03 295 0 gusting 2 25.6
2019-Sep-15 10:53 276 0 gusting 0 25.6
2019-Sep-15 10:43 262 25.6
2019-Sep-15 10:33 259 26.1
2019-Sep-15 10:13 269 25.6
2019-Sep-15 10:03 309 25.6
2019-Sep-15 09:53 308 25.6
2019-Sep-15 09:43 278 26.1
2019-Sep-15 09:33 280 0 gusting 1 26.1
2019-Sep-15 09:23 274 26.1
2019-Sep-15 09:13 248 26.1
2019-Sep-15 09:03 310 26.1
2019-Sep-15 08:53 310 26.1
2019-Sep-15 08:43 256 26.1
2019-Sep-15 08:33 252 26.1
2019-Sep-15 08:23 252 26.1
2019-Sep-15 08:13 252 26.1
2019-Sep-15 08:03 252 26.1
2019-Sep-15 07:53 272 26.1
2019-Sep-15 07:43 270 26.1
2019-Sep-15 07:33 274 0 gusting 2 26.1
2019-Sep-15 07:23 264 26.1
2019-Sep-15 07:13 266 26.1
2019-Sep-15 06:53 264 26.7
2019-Sep-15 06:43 264 0 gusting 2 26.7
2019-Sep-15 06:33 266 26.7
2019-Sep-15 06:23 264 26.7
2019-Sep-15 06:13 262 26.7
2019-Sep-15 06:03 262 26.7
2019-Sep-15 05:53 269 0 gusting 0 26.7
2019-Sep-15 05:43 267 26.7
2019-Sep-15 05:33 281 26.7
2019-Sep-15 05:23 316 26.7
2019-Sep-15 05:13 316 0 gusting 1 27.2
2019-Sep-15 05:03 320 0 gusting 2 27.2
2019-Sep-15 04:53 318 0 gusting 2 27.2
2019-Sep-15 04:43 318 1 gusting 3 27.2
2019-Sep-15 04:33 353 0 gusting 2 27.2
2019-Sep-15 04:23 349 27.2
2019-Sep-15 04:13 356 1 gusting 2 27.8
2019-Sep-15 04:03 335 0 gusting 5 27.8
2019-Sep-15 03:53 338 2 gusting 5 27.8
2019-Sep-15 03:43 330 1 gusting 4 27.8
2019-Sep-15 03:33 341 1 gusting 3 27.8
2019-Sep-15 03:23 326 1 gusting 3 27.8
2019-Sep-15 03:13 317 1 gusting 3 27.8
2019-Sep-15 03:03 354 1 gusting 3 27.8
2019-Sep-15 02:53 057 0 gusting 1 28.3
2019-Sep-15 02:43 324 0 gusting 1 28.3
2019-Sep-15 02:33 004 0 gusting 2 28.3
2019-Sep-15 02:23 357 0 gusting 0 28.3
2019-Sep-15 02:13 020 0 gusting 2 28.3
2019-Sep-15 02:03 024 1 gusting 4 28.3
2019-Sep-15 01:53 018 0 gusting 3 28.3
2019-Sep-15 01:43 027 28.3
2019-Sep-15 01:33 029 0 gusting 2 28.3
2019-Sep-15 01:23 049 0 gusting 2 28.3
2019-Sep-15 01:13 010 1 gusting 3 28.3
2019-Sep-15 01:03 078 0 gusting 4 28.3
2019-Sep-15 00:53 020 1 gusting 4 28.3
2019-Sep-15 00:43 013 0 gusting 1 28.3
2019-Sep-15 00:33 345 2 gusting 3 28.3
2019-Sep-15 00:23 010 0 gusting 1 28.3
2019-Sep-15 00:13 009 1 gusting 3 28.3
2019-Sep-15 00:03 043 28.3
2019-Sep-14 23:53 077 2 gusting 5 28.3
2019-Sep-14 23:43 005 28.3
2019-Sep-14 23:33 076 0 gusting 3 28.3
2019-Sep-14 23:23 064 0 gusting 4 28.9
2019-Sep-14 23:13 065 1 gusting 6 28.9
2019-Sep-14 23:04 088 1 gusting 4 28.9
2019-Sep-14 22:53 089 1 gusting 5 28.9
2019-Sep-14 22:43 094 2 gusting 4 28.9
2019-Sep-14 22:33 070 0 gusting 6 28.9
2019-Sep-14 22:23 068 2 gusting 5 29.4
2019-Sep-14 22:13 075 3 gusting 6 29.4
2019-Sep-14 21:53 082 3 gusting 8 29.4
2019-Sep-14 21:43 074 4 gusting 7 29.4
2019-Sep-14 21:33 087 2 gusting 6 30.0
2019-Sep-14 21:23 019 1 gusting 7 30.0
2019-Sep-14 21:13 094 1 gusting 10 30.6
2019-Sep-14 21:03 075 3 gusting 12 30.6
2019-Sep-14 20:53 072 2 gusting 11 31.1
2019-Sep-14 20:43 110 2 gusting 6 31.1
2019-Sep-14 20:33 079 3 gusting 12 31.1
2019-Sep-14 20:23 084 3 gusting 7 31.7
2019-Sep-14 20:13 341 3 gusting 11 31.1
2019-Sep-14 20:03 093 6 gusting 12 31.7
2019-Sep-14 19:53 112 4 gusting 13 31.7
2019-Sep-14 19:43 110 4 gusting 11 31.7
2019-Sep-14 19:33 348 5 gusting 10 31.7
2019-Sep-14 19:23 061 1 gusting 8 31.7
2019-Sep-14 19:13 072 4 gusting 10 32.2
2019-Sep-14 19:03 080 4 gusting 8 31.7
2019-Sep-14 18:53 071 4 gusting 11 31.7
2019-Sep-14 18:43 050 3 gusting 9 31.1
2019-Sep-14 18:33 020 5 gusting 11 31.1
2019-Sep-14 18:23 129 4 gusting 13 31.7
2019-Sep-14 18:13 108 3 gusting 8 31.7
2019-Sep-14 18:03 046 4 gusting 11 31.7
2019-Sep-14 17:53 062 5 gusting 10 31.1
2019-Sep-14 17:43 127 5 gusting 13 31.1
2019-Sep-14 17:33 343 4 gusting 11 30.6
2019-Sep-14 17:23 096 0 gusting 8 30.0
2019-Sep-14 17:13 030 2 gusting 11 30.0
2019-Sep-14 17:03 058 4 gusting 11 31.1
2019-Sep-14 16:53 098 6 gusting 13 30.6
2019-Sep-14 16:43 072 3 gusting 11 30.6
2019-Sep-14 16:33 066 2 gusting 10 30.6
2019-Sep-14 16:23 076 2 gusting 7 30.0
2019-Sep-14 16:13 097 3 gusting 10 28.9
2019-Sep-14 16:03 024 1 gusting 6 28.9
2019-Sep-14 15:53 360 4 gusting 12 29.4
2019-Sep-14 15:43 017 4 gusting 11 30.6
2019-Sep-14 15:33 309 3 gusting 6 30.6
2019-Sep-14 15:23 292 4 gusting 8 30.0
2019-Sep-14 15:13 347 2 gusting 6 29.4
2019-Sep-14 15:03 330 3 gusting 6 29.4
2019-Sep-14 14:53 013 3 gusting 6 28.9
2019-Sep-14 14:44 001 1 gusting 6 28.9
2019-Sep-14 14:33 340 2 gusting 7 28.9
2019-Sep-14 14:23 023 1 gusting 4 28.9
2019-Sep-14 14:13 302 0 gusting 3 28.9
2019-Sep-14 14:03 309 0 gusting 0 27.8
2019-Sep-14 13:53 308 0 gusting 2 27.8
2019-Sep-14 13:43 343 1 gusting 6 27.8
2019-Sep-14 13:33 359 0 gusting 3 27.2
2019-Sep-14 13:23 319 0 gusting 3 27.2
2019-Sep-14 13:13 282 27.2
2019-Sep-14 13:03 269 27.2
2019-Sep-14 12:53 271 0 gusting 1 27.2
2019-Sep-14 12:43 316 26.7
2019-Sep-14 12:33 353 26.7
2019-Sep-14 12:23 070 26.7
2019-Sep-14 12:13 042 26.7
2019-Sep-14 12:03 024 0 gusting 4 26.7
2019-Sep-14 11:53 024 0 gusting 3 26.7
2019-Sep-14 11:43 117 26.7
2019-Sep-14 11:33 316 26.7
2019-Sep-14 11:23 328 27.2
2019-Sep-14 11:13 325 0 gusting 1 26.7
2019-Sep-14 11:03 047 26.7
2019-Sep-14 10:53 096 26.7
2019-Sep-14 10:43 323 0 gusting 1 27.2
2019-Sep-14 10:33 350 27.2
2019-Sep-14 10:23 041 2 gusting 4 27.2
2019-Sep-14 10:13 358 1 gusting 2 27.2
2019-Sep-14 10:03 004 0 gusting 4 27.2
2019-Sep-14 09:53 049 0 gusting 4 27.2
2019-Sep-14 09:43 033 0 gusting 3 27.2
2019-Sep-14 09:33 044 0 gusting 6 27.2
2019-Sep-14 09:23 008 0 gusting 4 27.2
2019-Sep-14 09:13 058 1 gusting 8 27.2
2019-Sep-14 09:03 072 2 gusting 7 27.8
2019-Sep-14 08:53 042 1 gusting 7 27.8
2019-Sep-14 08:43 077 3 gusting 9 27.8
2019-Sep-14 08:33 065 5 gusting 9 27.8
2019-Sep-14 08:23 063 2 gusting 7 27.8
2019-Sep-14 08:13 089 1 gusting 6 27.8
2019-Sep-14 08:03 068 2 gusting 6 27.8
2019-Sep-14 07:53 046 1 gusting 6 27.8
2019-Sep-14 07:43 032 27.8
2019-Sep-14 07:33 094 2 gusting 6 27.8
2019-Sep-14 07:23 028 0 gusting 4 27.8
2019-Sep-14 07:13 090 1 gusting 6 27.8
2019-Sep-14 07:03 027 1 gusting 8 27.8
2019-Sep-14 06:53 084 0 gusting 8 27.8
2019-Sep-14 06:43 074 1 gusting 7 27.8
2019-Sep-14 06:33 068 3 gusting 7 27.8
2019-Sep-14 06:23 052 1 gusting 6 27.8
2019-Sep-14 06:13 086 2 gusting 12 28.3
2019-Sep-14 06:03 088 1 gusting 10 28.3
2019-Sep-14 05:53 087 4 gusting 10 28.3
2019-Sep-14 05:43 096 4 gusting 8 28.3
2019-Sep-14 05:33 086 3 gusting 11 28.3
2019-Sep-14 05:23 088 6 gusting 9 28.3
2019-Sep-14 05:14 085 4 gusting 8 28.3
2019-Sep-14 05:04 003 5 gusting 11 28.3
2019-Sep-14 04:53 123 4 gusting 9 27.8
2019-Sep-14 04:43 107 5 gusting 10 27.8
2019-Sep-14 04:33 070 2 gusting 5 27.8
2019-Sep-14 04:23 064 2 gusting 7 28.3
2019-Sep-14 04:13 092 2 gusting 9 28.3
2019-Sep-14 04:03 058 3 gusting 10 28.3
2019-Sep-14 03:43 065 3 gusting 9 28.3
2019-Sep-14 03:33 020 3 gusting 12 28.3
2019-Sep-14 03:23 079 1 gusting 6 28.3
2019-Sep-14 03:13 097 4 gusting 10 28.3
2019-Sep-14 03:03 084 3 gusting 11 28.3
2019-Sep-14 02:53 057 6 gusting 10 28.3
2019-Sep-14 02:43 082 5 gusting 14 28.3
2019-Sep-14 02:33 086 6 gusting 13 28.3
2019-Sep-14 02:23 107 5 gusting 13 28.3
2019-Sep-14 02:13 059 6 gusting 13 27.8
2019-Sep-14 02:03 117 4 gusting 8 27.2
2019-Sep-14 01:53 148 3 gusting 11 27.8
2019-Sep-14 01:43 084 4 gusting 10 28.9
2019-Sep-14 01:34 072 5 gusting 11 28.9
2019-Sep-14 01:23 054 2 gusting 12 28.3
2019-Sep-14 01:13 089 5 gusting 13 28.3
2019-Sep-14 01:03 085 2 gusting 7 27.2
2019-Sep-14 00:53 113 2 gusting 8 27.2
2019-Sep-14 00:43 110 5 gusting 17 27.2
2019-Sep-14 00:33 200 4 gusting 13 28.9
2019-Sep-14 00:23 066 1 gusting 7 28.9
2019-Sep-14 00:13 096 4 gusting 9 28.9
2019-Sep-14 00:03 103 4 gusting 13 28.9
2019-Sep-13 23:53 095 6 gusting 13 28.9
2019-Sep-13 23:43 077 3 gusting 11 28.9
2019-Sep-13 23:33 103 4 gusting 11 28.9
2019-Sep-13 23:23 093 5 gusting 13 28.9
2019-Sep-13 23:03 069 3 gusting 13 28.9
2019-Sep-13 22:53 072 3 gusting 15 29.4
2019-Sep-13 22:43 050 3 gusting 13 29.4
2019-Sep-13 22:33 085 6 gusting 15 29.4
2019-Sep-13 22:23 075 2 gusting 9 29.4
2019-Sep-13 22:13 081 3 gusting 12 28.9
2019-Sep-13 22:03 032 3 gusting 10 28.9
2019-Sep-13 21:53 075 5 gusting 13 28.3
2019-Sep-13 21:43 039 5 gusting 14 28.3
2019-Sep-13 21:33 105 6 gusting 14 28.3
2019-Sep-13 21:23 068 6 gusting 12 28.3
2019-Sep-13 21:13 094 7 gusting 19 27.8
2019-Sep-13 21:03 077 9 gusting 21 29.4
2019-Sep-13 20:53 046 4 gusting 14 29.4
2019-Sep-13 20:43 068 6 gusting 14 29.4
2019-Sep-13 20:33 333 4 gusting 13 28.9
2019-Sep-13 20:23 060 3 gusting 14 28.9
2019-Sep-13 20:13 081 4 gusting 15 28.9
2019-Sep-13 20:03 097 8 gusting 16 30.0
2019-Sep-13 19:53 039 6 gusting 13 30.0
2019-Sep-13 19:43 044 4 gusting 12 30.0
2019-Sep-13 19:33 080 6 gusting 13 30.6
2019-Sep-13 19:23 110 6 gusting 20 31.1
2019-Sep-13 19:13 062 4 gusting 13 31.1
2019-Sep-13 19:03 078 5 gusting 16 30.6
2019-Sep-13 18:53 060 6 gusting 18 30.6
2019-Sep-13 18:43 118 7 gusting 19 30.6
2019-Sep-13 18:33 098 6 gusting 13 31.1
2019-Sep-13 18:23 071 6 gusting 13 30.6
2019-Sep-13 18:13 086 5 gusting 15 30.6
2019-Sep-13 18:03 058 6 gusting 14 30.6